Location: *
(49.8292°S, 175.6452°W)
Time: 04:20:52
(UTC+00:00)

Daily predictions for brighter satellites

Satellite Brightness Start Highest point End
(mag) Time Altitude Azimuth Time Altitude Azimuth Time Altitude Azimuth
Cosmos 2263 Rocket 4.1 06:41:29 10° S 06:45:03 17° SSE 06:48:38 10° ESE
NOSS 3-1 (C) 4.3 06:40:33 10° SW 06:47:27 42° SSE 06:53:02 10° E
ATLAS 2AS CENTAUR R/B 4.3 06:49:36 10° ENE 06:51:30 11° E 06:53:24 10° E
Meteor 2-5 Rocket 4.1 06:47:39 10° NNE 06:52:50 41° E 06:58:07 10° SSE
Helios 1B rocket 3.2 06:50:58 10° SE 06:54:22 27° E 06:57:43 10° NNE
Cosmos 883 Rocket 4.5 06:51:19 10° S 06:57:36 79° E 07:03:46 10° NNE
CZ-2C R/B 2.5 06:57:14 10° SSE 07:00:45 61° ENE 07:04:11 10° N
CZ-4C R/B 4.3 07:03:02 11° ENE 07:05:40 23° ESE 07:08:28 10° S
USA 306 3.2 07:02:18 10° W 07:05:56 49° SSW 07:09:04 10° ESE
S3M 4.3 06:59:48 10° SSW 07:05:59 72° W 07:12:08 10° N
Cosmos 2098 Rocket 4.5 07:05:40 10° SE 07:07:22 13° ESE 07:08:49 11° E
Cosmos 1656 3.9 07:02:23 10° N 07:07:33 46° ENE 07:12:48 10° SE
Cosmos 2315 Rocket 4.1 07:07:00 10° S 07:13:22 87° W 07:19:37 10° N
BREEZE-M DEB (TANK) 2.4 07:08:20 10° WNW 07:13:48 66° NNE 07:16:03 12° E
YAOGAN 1 2.5 07:13:06 10° SSE 07:17:29 66° ENE 07:21:47 10° N
Genesis I 3.9 07:15:24 10° N 07:18:10 23° ENE 07:20:55 10° ESE
Cosmos 1825 2.0 07:15:41 10° N 07:18:53 48° E 07:22:07 10° SSE
Cosmos 1655 Rocket 4.0 07:14:23 10° N 07:20:40 84° E 07:27:01 10° S
Cosmos 968 Rocket 4.1 07:16:11 10° SSW 07:21:14 42° ESE 07:25:15 15° NE
Cosmos 2242 Rocket 3.5 07:18:29 10° N 07:22:53 72° E 07:27:23 10° SSE
ACS3 Solar Sail 2.7 07:17:59 10° SSE 07:23:28 29° E 07:28:50 10° NNE
Cosmos 1980 Rocket 3.8 07:27:36 14° E 07:28:01 14° E 07:30:51 10° ESE
Meteor 2-20 Rocket 4.5 07:24:07 10° SSW 07:30:03 82° W 07:36:09 10° N
Cosmos 1703 4.2 07:26:38 10° NNW 07:30:14 48° WSW 07:33:55 10° S
Cosmos 1741 Rocket 4.2 07:25:57 10° SSW 07:31:14 57° ESE 07:35:17 17° NE
SJ-6B 3.1 07:28:07 10° SSE 07:31:37 39° E 07:35:01 10° NNE
Cosmos 2285 Rocket 4.1 07:25:58 10° SSW 07:32:30 72° ESE 07:38:13 14° NNE
Cosmos 1850 Rocket 4.2 07:27:20 10° SSW 07:32:36 61° ESE 07:36:43 17° NE
ATLAS 3B R/B 3.7 07:28:04 10° SW 07:33:36 31° SSE 07:38:57 11° E
CZ-4B R/B 3.9 07:32:25 10° SE 07:35:51 26° E 07:37:31 20° NE
BREEZE-M DEB (TANK) 3.8 07:32:31 10° WNW 07:36:39 86° N 07:52:41 10° E
ISS -3.8 07:33:23 10° WNW 07:36:50 70° NNE 07:39:36 15° ESE
Cosmos 1437 Rocket 4.1 07:37:33 20° E 07:38:06 20° E 07:41:02 10° SE
Tiangong -0.2 07:38:10 10° NNW 07:39:57 15° N 07:39:57 15° N
USA 307 2.8 07:40:00 10° WSW 07:41:16 23° S 07:41:56 18° SSE
Cosmos 1624 Rocket 4.5 07:37:06 10° NNW 07:42:19 67° WSW 07:47:39 10° SSE
BlueWalker 3 3.9 07:40:02 10° W 07:42:54 20° NW 07:45:35 11° N
ARGOS Delta rocket 3.9 07:37:50 10° S 07:43:00 88° WSW 07:47:49 10° NNW
Cosmos 2219 4.1 07:39:02 10° SSW 07:44:17 36° SE 07:47:40 19° ENE
Cosmos 1110 Rocket 4.2 07:39:39 10° N 07:44:44 48° ENE 07:49:51 10° SSE
SJ 16-02 1.7 07:41:30 10° SSW 07:45:49 49° ESE 07:48:10 24° NE
Resurs 01 Rocket 2.4 07:42:21 10° SSE 07:46:24 32° E 07:48:19 23° NE
Cosmos 1025 Rocket 4.3 07:45:51 21° ENE 07:46:39 23° E 07:50:07 10° SE
USA 186 2.7 07:46:54 10° SSE 07:49:49 29° E 07:49:54 29° E
Cosmos 2227 Rocket 2.2 07:48:01 10° SSW 07:53:45 70° ESE 07:57:20 23° NE
Cosmos 1697 Rocket 3.0 07:50:57 10° N 07:56:17 45° ENE 08:01:41 10° SE
USA 215 3.3 07:51:55 20° ENE 07:56:48 77° SSE 08:03:28 10° WSW
Cosmos 2297 Rocket 2.6 07:51:30 10° SW 07:57:10 63° WNW 08:01:49 15° N
Okean 2 Rocket 3.0 07:53:33 10° S 07:58:03 71° E 08:00:40 24° NNE
CZ-4B R/B 3.9 07:53:41 10° SSE 07:58:42 33° E 08:00:49 25° NE
Cosmos 1745 Rocket 4.4 07:54:43 19° NNE 07:58:52 43° E 08:04:41 10° SSE
Cosmos 1674 Rocket 3.6 07:55:31 15° N 07:59:03 58° E 08:03:31 10° SSE
CZ-4 R/B 1.3 08:00:07 10° SSE 08:04:00 60° E 08:06:18 23° N
Okean O Rocket 2.9 08:01:08 10° SE 08:04:39 24° E 08:04:39 24° E
USA 59 Rocket 3.1 07:55:19 10° WSW 08:05:05 39° S 08:13:41 10° ESE
RESURS DK-1 4.0 08:01:50 10° WNW 08:05:37 36° SW 08:09:27 10° SSE
Resurs 1-3 3.8 08:01:15 10° S 08:05:41 75° WSW 08:10:02 10° NNW
CSL-04 Rocket 4.2 08:02:09 10° SSE 08:07:13 37° E 08:09:08 28° NE
Meteor 1-24 Rocket 4.5 08:02:58 10° NNW 08:08:19 53° WSW 08:13:56 10° S
Cosmos 2360 4.1 08:04:19 10° NNW 08:10:02 82° ENE 08:15:50 10° SSE
USA 305 3.3 08:08:17 10° SW 08:10:26 29° S 08:11:12 24° SE
ADEOS 3.5 08:05:12 10° SSE 08:10:33 79° ENE 08:15:49 10° NNW
SL-24 DEB 4.3 08:07:49 17° N 08:11:27 83° W 08:16:11 10° S
Okean 1 Rocket 3.0 08:07:21 10° S 08:11:50 67° ESE 08:13:39 34° NNE
CZ-4B DEB 4.2 08:07:20 10° SSE 08:12:57 70° ENE 08:18:29 10° N
SL-12 R/B(2) 4.2 08:04:40 10° SW 08:13:33 84° NW 08:18:21 26° NE
Cosmos 1452 Rocket 3.4 08:08:31 10° NNW 08:13:47 76° ENE 08:19:07 10° SSE
Cosmos 1378 Rocket 3.6 08:10:00 10° NNW 08:14:21 83° W 08:18:46 10° S
Cosmos 1892 4.3 08:13:57 10° NW 08:17:05 32° WSW 08:20:16 10° S
Cosmos 1455 Rocket 3.7 08:14:45 10° S 08:18:51 37° ESE 08:19:33 35° E
Cosmos 1606 3.5 08:16:04 10° S 08:18:55 30° ESE 08:18:55 30° ESE
CZ-4B R/B 3.3 08:14:28 10° SSE 08:19:20 86° ENE 08:24:11 10° NNW
ATLAS CENTAUR R/B 4.2 08:12:48 10° WSW 08:21:55 54° NW 08:27:02 23° NNE
Terra 4.0 08:20:15 10° ESE 08:21:06 12° ESE 08:21:06 12° ESE
Cosmos 2151 Rocket 4.2 08:19:52 10° SSW 08:24:23 58° W 08:27:19 21° NNW
CARTOSAT-1 3.4 08:20:53 10° SSE 08:25:15 77° ENE 08:27:17 30° N
NOSS 3-1 (A) 3.5 08:19:55 10° SW 08:26:54 67° SE 08:29:27 35° ENE
Cosmos 2221 Rocket 3.6 08:25:02 20° N 08:28:10 86° WSW 08:32:50 10° S
Helios 1B rocket 4.3 08:25:06 10° S 08:28:34 30° WSW 08:31:58 10° NW
IRIDIUM 104 4.3 08:23:28 10° S 08:28:49 72° E 08:31:00 36° NNE
Cosmos 2263 Rocket 2.3 08:24:37 10° SSW 08:30:12 60° ESE 08:32:13 38° ENE
Cosmos 371 Rocket 3.9 08:26:42 10° SSW 08:31:26 43° ESE 08:32:34 37° E
Cosmos 1331 Rocket 4.1 08:30:44 10° NNW 08:35:56 75° WSW 08:41:12 10° SSE
Sich 1 Rocket 4.4 08:32:44 10° SSW 08:37:15 51° W 08:39:48 24° NNW
SPOT 1/Viking Rocket 4.3 08:32:34 10° S 08:37:41 53° WSW 08:42:43 10° NW
IRIDIUM 114 4.3 08:32:37 10° S 08:37:59 85° E 08:40:09 37° N
USA 306 3.2 08:35:22 10° WSW 08:38:34 37° S 08:38:45 37° SSE
NOSS 3-1 (C) 3.6 08:32:02 10° SW 08:38:40 62° NW 08:40:56 36° N
Nadezhda 1 Rocket 4.1 08:33:59 10° SSW 08:40:12 78° W 08:43:50 27° N
ATLAS 2AS CENTAUR R/B 2.7 08:34:10 10° NNW 08:40:47 55° ENE 08:47:42 10° SE
CZ-2C R/B 4.3 08:40:10 40° E 08:40:54 43° ESE 08:45:27 10° S
Meteor 1-21 Rocket 4.1 08:38:54 29° N 08:41:52 76° E 08:47:41 10° SSE
Cosmos 1709 Rocket 3.9 08:40:55 36° NNE 08:43:25 63° E 08:49:32 10° SSE
PAYLOAD B 4.2 08:38:47 10° SSE 08:44:30 88° WSW 08:48:46 18° NNW
Cosmos 1869 3.7 08:42:31 10° S 08:45:57 47° SE 08:45:57 47° SE
Cosmos 2098 Rocket 3.4 08:43:20 10° SSW 08:46:28 44° W 08:47:08 39° NW
IRIDIUM 103 4.4 08:41:47 10° S 08:47:08 81° W 08:49:17 37° N
CSL-04 Debris 4.1 08:41:41 10° SSE 08:47:17 80° ENE 08:49:59 32° N
Cosmos 304 Rocket 4.0 08:44:57 10° SSW 08:49:43 52° ESE 08:50:22 48° E
Genesis I 4.3 08:50:32 10° WNW 08:53:43 38° SW 08:56:55 10° SSE
Cosmos 1302 Rocket 3.9 08:52:22 39° N 08:54:20 76° ENE 08:59:40 10° SSE
Cosmos 2228 4.2 08:55:27 10° S 08:58:45 30° SE 08:58:45 30° SE
Spot 1 4.4 08:58:36 57° NNE 08:59:42 88° WNW 09:04:43 10° SSW
ACS3 Solar Sail 2.4 09:01:27 10° S 09:07:45 61° WSW 09:13:57 10° NNW
Cosmos 1975 Rocket 3.3 09:09:05 57° SE 09:09:05 57° SE 09:12:52 10° SSE
CZ-4B R/B 4.4 09:06:35 10° S 09:10:13 34° WSW 09:12:52 17° NW
Cosmos 1980 Rocket 2.1 09:09:14 46° NNW 09:11:02 78° ENE 09:16:49 10° SSE
SPOT 5 2.9 09:08:06 10° SSE 09:12:22 59° ESE 09:12:22 59° ESE
Cosmos 1437 Rocket 4.0 09:12:07 30° WNW 09:13:18 38° WSW 09:17:02 10° S
ISS -2.3 09:10:15 10° W 09:12:32 37° WSW 09:12:32 37° WSW
Cosmos 1992 Rocket 4.1 09:14:40 58° E 09:14:40 58° E 09:19:28 10° SSE
Lacrosse 4 Rocket 2.6 09:11:41 10° SSW 09:15:03 31° SE 09:15:03 31° SE
Cosmos 2082 3.6 09:10:21 10° SSW 09:16:03 81° WNW 09:16:59 63° N
Okean-O 2.9 09:12:22 10° SSE 09:16:12 59° SE 09:16:12 59° SE
Landsat 5 4.0 09:17:32 52° WNW 09:17:47 53° W 09:21:58 10° SSW
MetOp-B 4.2 09:12:45 10° SSE 09:18:09 61° ENE 09:18:09 61° ENE
USA 229 DEB 4.0 09:12:55 10° SW 09:19:41 54° SE 09:21:41 40° E
USA 229 4.0 09:12:55 10° SW 09:19:43 54° SE 09:21:46 39° E
Cosmos 2074 Rocket 4.4 09:20:29 44° E 09:20:44 44° E 09:26:45 10° SSE
MOS 1 4.2 09:15:26 10° SSE 09:21:14 71° ENE 09:21:54 65° NNE
USA 186 4.3 09:18:48 10° SSW 09:21:16 20° WSW 09:22:20 17° W
Resurs 01 Rocket 3.2 09:18:44 10° S 09:22:48 34° WSW 09:25:47 16° WNW
SJ 16-02 3.3 09:20:27 10° SW 09:23:46 21° W 09:24:53 19° WNW
Cosmos 1025 Rocket 4.1 09:22:34 33° WNW 09:23:53 42° WSW 09:28:09 10° S
ATLAS 3B R/B 2.3 09:18:46 10° SW 09:25:02 86° SE 09:26:11 62° NE
ERS-1 Rocket 3.4 09:21:37 10° SSE 09:25:49 47° ESE 09:25:49 47° ESE
Cosmos 2219 3.7 09:23:09 10° SW 09:28:35 48° WNW 09:29:35 43° NW
Ariane Rocket 4.3 09:27:11 10° SSE 09:30:21 28° ESE 09:30:21 28° ESE
Cosmos 44 Rocket 3.3 09:28:37 10° SW 09:33:43 85° SSE 09:33:43 85° SSE
Cosmos 2181 Rocket 4.0 09:27:59 10° S 09:34:25 88° W 09:35:38 62° N
SL-16 R/B 3.6 09:38:22 25° ESE 09:38:22 25° ESE 09:41:19 10° SE
Cosmos 2227 Rocket 3.9 09:32:55 10° SW 09:37:15 23° WNW 09:39:09 19° NW
CZ-4 R/B 4.1 09:35:38 10° SSW 09:38:04 16° WSW 09:40:31 10° W
ASTEX 1 3.5 09:33:52 10° S 09:38:51 69° W 09:39:07 67° WNW
CZ-4B R/B 4.2 09:34:06 10° S 09:39:24 45° WSW 09:42:42 21° NW
IRS-1C Rocket 4.4 09:34:20 10° SSE 09:38:55 53° ESE 09:38:55 53° ESE
USA 215 3.7 09:39:15 42° NNW 09:40:07 44° NW 09:46:26 10° WSW
Cosmos 1697 Rocket 4.0 09:35:05 10° WNW 09:40:21 38° SW 09:45:40 10° SSE
Meteor 1-11 4.4 09:39:18 52° NW 09:40:33 68° WSW 09:46:13 10° S
Cosmos 1844 Rocket 3.1 09:35:09 10° SSW 09:40:36 48° SE 09:41:03 47° ESE
Okean O Rocket 2.6 09:36:55 10° S 09:41:14 45° WSW 09:41:59 41° W
Cosmos 1503 Rocket 4.3 09:36:14 10° SSW 09:41:16 57° SE 09:41:16 57° SE
Cosmos 2154 Rocket 4.3 09:42:00 51° E 09:42:00 51° E 09:48:09 10° SSE
IRS-1A Rocket 4.3 09:36:08 10° SSE 09:42:05 69° ENE 09:42:05 69° ENE
Meteor 1-27 4.1 09:40:42 10° S 09:46:22 79° ESE 09:46:26 79° E
Cosmos 1486 Rocket 4.0 09:41:20 10° SSW 09:46:38 86° SW 09:46:38 86° SW
BREEZE-M DEB 3.8 09:32:10 10° W 09:46:58 82° NNW 09:47:28 74° NE
MOS 1 Rocket 3.9 09:44:15 10° S 09:49:18 61° WSW 09:50:06 54° WNW
Cosmos 2278 4.5 09:55:11 40° ESE 09:55:11 40° ESE 09:59:13 10° SE
Cosmos 1544 Rocket 4.2 09:49:21 10° SSW 09:52:54 54° SW 09:52:54 54° SW
USA 59 Rocket 2.2 09:46:57 10° SW 09:57:15 62° SE 10:01:03 37° E
Cosmos 2360 Rocket 4.0 10:01:50 19° ESE 10:01:50 19° ESE 10:04:02 10° SE
Cosmos 2369 3.9 09:58:42 54° WNW 09:59:50 68° WSW 10:05:37 10° SSE
Terra 2.3 09:55:54 10° SSE 09:59:47 58° SSE 09:59:47 58° SSE
Cosmos 1354 Rocket 4.3 09:59:10 10° SSW 10:03:57 62° SSE 10:03:57 62° SSE
Cosmos 1777 Rocket 4.2 10:02:58 10° SSW 10:07:39 69° S 10:07:39 69° S
Cosmos 332 Rocket 4.3 10:03:52 10° SSW 10:07:46 57° SW 10:07:46 57° SW
Cosmos 2263 Rocket 3.6 10:09:08 10° SW 10:13:43 26° WNW 10:13:54 26° WNW
Cosmos 2227 4.4 10:13:51 10° SSW 10:19:11 63° W 10:19:11 63° W
SPOT 3 Rocket 3.9 10:16:23 10° SSE 10:20:38 58° SSE 10:20:38 58° SSE
Cosmos 1295 Rocket 4.5 10:21:42 75° WNW 10:22:07 79° W 10:28:34 10° S
ATLAS 2AS CENTAUR R/B 3.5 10:25:10 10° WNW 10:31:53 50° SW 10:38:54 10° SE
Cosmos 1844 3.9 10:27:31 10° SSW 10:32:45 72° SW 10:32:45 72° SW
Cosmos 2322 Rocket 3.1 10:35:15 39° ESE 10:35:15 39° ESE 10:39:00 10° SE
Spot 2 Rocket 4.0 10:30:00 10° S 10:34:26 57° SW 10:34:26 57° SW
Nadezhda 3 Rocket 4.1 10:29:04 10° SSW 10:35:17 66° W 10:35:21 66° W
SL-8 Rocket 4.5 10:38:55 49° ESE 10:38:55 49° ESE 10:44:31 10° SSE
Cosmos 2184 Rocket 4.3 10:39:52 55° W 10:40:26 57° WSW 10:46:37 10° S
Cosmos 2333 Rocket 3.1 10:50:04 40° ESE 10:50:04 40° ESE 10:53:55 10° SE
ACS3 Solar Sail 4.4 10:47:08 10° SSW 10:50:25 15° SW 10:53:42 10° W
H-2A R/B 3.8 10:53:06 29° SSE 10:53:06 29° SSE 10:55:26 10° S
Cosmos 2218 Rocket 4.4 10:52:54 52° ESE 10:52:54 52° ESE 10:58:33 10° SSE
Lacrosse 4 Rocket 3.8 10:49:48 10° SW 10:50:51 17° WSW 10:50:51 17° WSW
IDEFIX/ARIANE 42P 4.4 10:54:48 20° ESE 10:55:26 21° ESE 10:59:15 10° S
Cosmos 1980 Rocket 4.1 10:50:56 10° W 10:55:41 26° SW 11:00:28 10° SSE
ATLAS CENTAUR R/B 4.2 11:04:08 11° SE 11:04:08 11° SE 11:04:17 10° SE
USA 229 DEB 4.4 11:04:16 10° SW 11:09:06 38° W 11:09:06 38° W
USA 229 4.4 11:04:16 10° SW 11:09:11 39° W 11:09:11 39° W
Ariane Rocket 4.0 11:06:01 10° S 11:10:28 40° SW 11:10:28 40° SW
ATLAS 3B R/B 4.2 11:10:19 10° WSW 11:13:25 20° W 11:13:25 20° W
Aureole 1 Rocket 4.4 11:09:03 10° SSW 11:17:02 79° ESE 11:17:48 72° ENE
Cosmos 1818 4.2 11:18:17 53° SSW 11:18:17 53° SSW 11:23:03 10° SE
SL-16 R/B 2.8 11:20:10 51° SW 11:20:10 51° SW 11:25:46 10° SSE
COSMOS 2428 4.4 11:23:47 23° ESE 11:23:47 23° ESE 11:26:50 10° SE
Cosmos 1844 Rocket 4.1 11:19:19 10° SW 11:22:42 28° WSW 11:22:42 28° WSW
Cosmos 2366 rocket 4.0 11:30:40 76° SSW 11:30:40 76° SSW 11:36:35 10° S
Terra 4.2 11:34:53 10° SSW 11:37:37 15° SW 11:38:28 15° WSW
Cosmos 2219 Rocket 2.7 11:39:57 53° SE 11:39:57 53° SE 11:44:21 10° SSE
CZ-2D R/B 3.6 11:38:26 28° ESE 11:39:02 29° ESE 11:43:31 10° S
Cosmos 2341 Rocket 4.3 11:40:00 62° WSW 11:40:00 62° WSW 11:46:21 10° S
ALOS 2 4.5 11:37:39 10° SSE 11:39:59 26° SE 11:39:59 26° SE
Cosmos 2360 Rocket 2.6 11:43:33 60° SSW 11:43:33 60° SSW 11:48:42 10° SSE
ADEOS II 3.9 11:44:05 21° E 11:45:25 24° ESE 11:49:34 10° S
USA 59 Rocket 1.9 11:37:51 10° SW 11:47:18 55° WNW 11:47:18 55° WNW
Cosmos 1898 Rocket 4.3 11:42:46 10° SSW 11:46:33 47° SW 11:46:33 47° SW
Cosmos 1937 Rocket 4.2 11:43:37 10° SSW 11:47:25 49° SSW 11:47:25 49° SSW
